Theta_e
314 318 320 319 321 321 321 321 320 321 324 327 335 336 332 334 334 336 339 339 341 340 340 339 338 339 340 339 340 337 339 339 339 335 335 334 333 335 337 336 335 334 334 333 331 329 329 330 330
318 318 318 320 321 320 322 321 321 321 323 330 334 333 335 334 336 339 339 338 340 337 339 337 334 335 342 342 342 339 340 339 338 335 335 335 334 335 336 334 332 330 331 331 330 330 328 328 325
316 316 320 320 320 320 321 321 321 321 322 329 331 333 335 335 335 338 335 336 339 337 337 336 332 333 338 343 342 340 340 339 337 335 336 335 334 333 333 331 329 329 329 328 328 329 329 326 323
316 317 319 320 320 321 320 321 321 320 325 327 328 330 332 333 334 337 335 336 338 340 338 337 333 333 335 342 341 340 340 338 336 335 335 334 333 332 330 328 328 329 329 328 328 328 327 324 324
318 318 318 320 320 321 321 321 320 321 325 328 329 329 331 335 335 335 336 334 337 340 339 338 333 330 331 333 340 339 338 337 335 334 332 333 332 330 329 330 330 330 330 328 328 327 323 323 323
319 319 318 317 320 321 321 321 320 323 325 328 329 329 330 334 334 335 334 335 338 338 340 337 335 329 330 332 336 339 337 335 334 332 331 332 332 329 329 330 330 331 329 326 325 323 321 321 322
319 319 317 318 320 321 320 323 324 323 326 327 329 330 330 331 332 334 333 335 336 335 337 337 334 333 328 329 333 336 335 333 331 331 332 331 330 329 330 331 331 330 328 320 316 316 317 318 319
318 318 317 316 320 321 319 322 323 325 323 330 328 330 330 332 331 332 333 333 335 335 335 334 332 331 333 330 331 334 333 329 327 329 326 330 330 330 330 329 327 327 327 316 312 313 312 312 315
317 317 317 316 320 320 319 321 323 326 326 330 331 330 332 330 331 332 333 334 334 333 332 332 330 328 328 326 326 329 328 328 327 328 328 329 330 329 327 326 324 327 321 315 312 312 312 314 315
317 318 318 317 319 319 320 320 320 324 325 328 331 331 330 329 330 331 332 333 333 331 333 332 328 327 327 327 329 329 329 330 328 326 324 330 329 327 325 328 323 324 319 315 313 313 313 316 317
317 318 317 317 318 319 320 320 320 324 324 326 329 331 331 330 329 331 332 331 332 331 331 332 330 328 327 325 324 323 328 324 323 325 323 328 327 324 327 328 327 326 320 320 318 317 319 318 317
316 316 316 317 318 319 320 321 324 325 326 327 328 328 330 330 331 331 331 331 331 330 329 331 331 329 327 325 326 326 327 322 324 320 320 327 324 323 325 325 325 325 323 322 321 319 319 319 317
317 317 317 317 317 319 319 322 324 325 327 327 329 330 330 331 330 329 330 330 330 327 328 327 328 329 327 326 325 325 326 321 324 322 323 324 322 322 322 323 324 324 324 323 321 320 319 318 317
317 317 317 318 319 319 321 321 329 324 329 330 331 331 330 329 329 328 328 328 329 326 326 327 325 326 325 323 323 325 325 323 324 323 323 322 321 320 319 319 319 320 322 322 320 319 318 316 316
316 317 318 318 319 319 322 322 328 325 331 332 332 330 329 329 328 327 327 328 326 327 325 323 323 324 324 322 323 324 322 323 322 322 320 320 319 318 317 316 316 317 318 318 317 318 316 316 316
317 318 319 318 318 319 324 321 321 327 331 331 332 330 329 328 327 326 325 325 324 325 323 323 322 322 321 321 321 322 322 322 323 322 321 319 315 315 316 316 316 316 316 316 316 317 317 316 315
318 319 319 319 318 320 325 321 323 327 330 329 332 331 330 329 327 326 324 325 323 323 324 322 321 321 321 321 320 319 319 322 321 320 319 315 315 314 316 316 316 318 316 316 315 315 315 315 315
319 319 318 318 318 319 322 323 321 324 328 330 331 332 330 329 328 325 324 323 323 323 324 323 322 321 321 320 321 321 319 320 321 319 321 320 318 318 317 316 317 319 317 317 316 314 314 313 313
317 317 317 316 317 317 319 320 320 322 325 330 331 332 331 329 328 325 324 322 323 324 323 323 321 321 321 320 321 320 319 318 317 316 320 323 319 318 318 317 318 318 319 319 318 317 315 314 313
316 316 317 316 316 316 317 319 321 322 325 329 330 332 332 330 329 327 325 324 322 324 323 322 322 321 321 321 321 320 320 318 317 317 319 322 321 319 319 318 318 318 320 321 320 319 318 317 314
317 316 317 317 317 317 318 319 320 321 324 327 329 330 331 332 330 328 326 325 324 324 323 322 321 321 320 320 320 320 320 319 318 318 320 321 323 320 319 320 319 319 319 320 321 321 320 320 318
318 317 317 317 318 317 319 321 321 321 321 324 326 331 331 332 330 329 328 326 324 324 324 323 321 321 321 320 320 320 319 319 319 318 319 321 323 322 320 320 321 321 320 320 321 322 321 322 321
317 316 318 318 319 318 318 319 319 320 321 321 321 325 330 331 331 330 328 327 325 324 323 323 322 322 321 321 320 319 319 319 318 318 319 321 322 322 321 321 322 323 324 323 324 323 323 323 323
316 317 318 319 318 321 318 319 319 320 322 321 320 322 326 329 331 330 328 327 326 324 323 322 322 322 321 320 319 319 320 319 319 318 318 319 320 321 321 322 324 323 325 324 324 325 325 324 323
316 318 321 321 321 321 319 321 320 321 321 321 321 321 325 327 330 330 330 329 326 325 323 323 321 321 321 320 321 321 320 321 321 318 318 318 319 319 320 320 321 321 322 323 323 322 325 325 324
318 319 320 321 323 322 321 323 322 321 321 322 321 321 323 327 329 329 330 329 327 326 324 321 322 322 322 321 321 323 322 322 321 320 319 318 317 318 318 319 319 320 320 320 321 321 322 322 323
319 320 319 320 322 324 323 322 321 320 321 321 322 322 323 325 328 328 329 329 328 326 324 321 321 322 322 322 323 322 322 323 322 321 320 319 318 318 318 319 319 319 319 319 320 320 320 321 322
320 319 321 321 322 323 321 322 322 321 321 321 321 322 322 323 324 326 328 328 327 327 325 321 321 321 322 323 323 323 323 323 323 322 321 320 320 319 319 319 319 319 319 319 320 320 320 320 321
320 321 319 321 321 323 323 323 321 322 322 322 322 321 322 323 324 326 327 327 327 327 326 324 323 322 322 322 322 323 323 322 322 322 322 321 320 320 319 319 319 319 319 319 320 320 321 321 321
319 319 320 321 322 322 325 323 321 320 319 320 321 321 321 322 323 324 328 328 327 327 327 326 324 323 322 322 322 322 322 322 322 321 321 321 321 320 320 320 319 319 320 320 320 320 321 321 322
Wind_Speed
8 6 4 6 6 6 3 4 2 4 3 1 1 5 8 10 6 9 3 5 1 17 20 18 18 23 26 31 34 39 36 34 34 34 33 33 38 34 32 32 29 29 26 25 24 24 23 23 25
9 7 6 3 7 8 5 3 4 1 2 3 6 8 8 7 2 3 2 4 4 18 21 21 20 23 27 30 35 37 36 36 34 35 33 34 35 36 33 32 31 30 27 26 25 24 24 24 28
8 6 5 4 6 7 2 5 2 1 2 5 3 3 5 2 2 1 2 2 8 19 21 22 22 23 25 30 34 35 35 36 35 36 35 35 35 35 33 32 32 29 27 26 26 25 25 27 29
8 6 4 8 10 4 5 4 2 4 3 7 5 7 3 3 1 3 2 3 10 18 23 24 26 27 27 34 35 37 37 36 35 35 34 34 35 36 33 32 32 30 28 26 25 25 25 28 29
7 3 7 12 9 3 7 5 5 7 3 3 5 4 5 3 3 2 3 4 11 21 22 21 29 28 25 26 35 37 38 37 37 36 35 33 34 36 35 34 33 31 28 26 25 26 28 27 28
6 4 7 11 11 7 5 4 6 6 6 4 6 8 4 2 4 4 4 5 9 18 19 22 27 30 27 28 31 38 37 33 36 36 36 35 35 36 36 33 30 27 28 26 26 26 27 27 27
11 7 10 9 7 8 3 0 6 6 7 9 1 6 1 4 1 4 5 5 8 15 20 21 24 24 29 30 31 35 35 34 34 36 37 37 35 37 36 32 28 27 26 27 27 26 26 26 25
7 5 10 11 10 10 5 3 3 7 8 4 3 5 6 2 4 3 4 6 8 12 18 17 20 18 20 24 25 28 34 34 32 34 34 38 36 36 35 32 28 28 30 28 27 26 25 25 24
5 7 10 12 11 7 3 6 3 3 7 6 7 6 3 3 3 4 6 5 8 9 15 22 28 23 22 23 21 24 26 30 34 37 35 39 30 30 29 26 29 31 31 28 27 27 26 25 25
11 10 13 5 7 7 7 7 9 5 8 10 9 7 5 4 6 6 6 5 5 6 14 22 25 40 24 26 27 26 25 29 33 33 34 30 30 28 24 27 31 33 31 29 27 27 26 22 20
12 14 9 7 9 9 10 10 4 7 10 10 9 5 7 6 6 8 7 5 5 3 10 17 34 29 26 26 27 24 25 29 32 32 29 27 25 26 24 26 28 29 29 24 24 25 18 17 19
11 15 11 11 7 8 9 8 9 9 10 1 4 3 7 6 4 4 6 4 3 4 6 15 26 30 36 35 35 33 33 35 36 36 32 29 27 28 26 26 27 28 25 23 22 19 15 16 16
18 11 10 13 12 11 10 13 11 10 4 5 4 6 5 5 4 3 3 3 3 6 9 10 21 28 30 32 33 31 37 40 37 35 28 28 28 26 27 26 26 26 23 22 21 18 17 16 16
8 18 13 12 13 10 11 13 4 3 6 8 8 7 7 5 6 5 3 4 6 5 5 9 11 19 24 24 28 28 42 40 35 30 28 25 27 26 25 24 23 22 21 20 18 18 17 16 15
12 12 14 15 15 15 10 17 14 6 9 10 11 9 8 9 8 8 7 7 5 8 9 8 11 14 17 27 23 32 37 40 33 26 27 26 24 25 24 22 21 20 19 20 18 17 16 15 15
13 14 15 15 10 7 12 18 4 5 10 12 12 10 10 11 9 7 7 7 7 8 13 12 11 17 23 25 26 35 37 34 29 25 24 23 26 26 23 21 20 19 18 18 16 16 15 15 15
12 14 16 12 9 6 12 15 4 5 10 12 12 12 11 10 11 9 8 9 9 10 16 15 15 22 27 28 27 34 34 31 26 23 21 24 24 23 20 20 19 19 18 17 15 14 15 15 15
16 15 15 13 9 10 12 15 11 7 11 13 12 12 12 11 12 11 11 11 11 11 17 20 19 24 23 27 27 30 34 30 27 26 20 18 21 23 20 19 18 19 18 16 15 15 14 15 14
11 12 14 7 4 7 13 15 12 6 11 13 12 13 14 13 11 13 13 12 13 12 13 21 25 28 27 28 26 25 28 37 35 38 22 18 23 24 21 20 19 20 19 18 17 15 15 14 14
18 15 13 6 6 10 14 14 14 4 9 11 13 14 15 14 13 14 15 16 16 16 16 21 24 31 31 29 27 23 29 34 35 38 25 19 23 23 23 21 21 21 19 18 17 17 15 14 16
21 19 14 12 3 11 10 15 17 12 8 8 12 13 15 17 17 16 16 18 19 20 20 19 24 31 32 32 27 22 24 25 28 31 29 26 23 25 25 24 22 23 21 20 20 18 16 15 16
19 17 16 13 9 11 7 14 15 11 15 12 12 13 14 17 17 17 17 20 21 21 21 21 22 30 31 34 30 32 30 27 29 35 29 28 25 26 27 24 23 23 22 21 21 19 19 19 17
16 7 13 14 13 13 14 9 13 9 14 15 14 13 15 16 19 19 19 22 21 21 23 23 23 25 31 34 32 34 27 26 26 27 27 27 26 27 26 24 24 24 22 21 22 20 20 21 23
4 8 7 6 7 12 15 11 11 12 13 10 9 9 10 13 17 18 21 21 21 22 23 24 25 26 30 35 32 35 32 28 26 30 29 33 33 28 25 25 23 25 22 21 22 21 19 21 21
15 12 7 9 9 10 5 10 16 6 10 11 9 8 7 10 14 18 20 20 23 25 26 26 28 28 30 33 36 35 35 34 34 35 35 32 30 33 35 27 24 22 21 19 19 21 18 20 21
21 17 6 6 9 9 8 8 11 7 7 11 9 9 4 10 13 17 21 22 26 28 29 29 30 30 32 34 36 37 39 38 35 35 37 35 36 35 35 28 27 26 24 24 22 21 22 21 22
13 19 16 10 2 4 7 5 10 9 8 6 9 7 8 10 12 15 19 26 28 30 31 32 31 31 32 35 35 37 38 38 39 37 36 36 37 37 36 33 33 31 28 28 27 27 26 25 27
11 11 8 10 10 13 10 9 6 3 7 8 7 7 5 6 9 12 16 23 28 29 29 29 30 32 33 34 36 37 40 41 38 37 38 39 38 39 38 38 36 34 33 32 31 31 30 30 29
14 12 8 6 10 8 8 5 4 6 11 12 11 3 6 9 7 8 14 21 26 26 29 31 32 32 33 35 36 36 38 40 40 39 40 41 40 39 40 41 40 39 40 37 35 35 35 33 32
12 17 18 10 11 6 5 6 5 6 8 11 9 11 13 12 10 6 11 16 23 28 29 32 33 35 36 35 35 36 35 36 38 40 41 39 40 38 39 38 41 42 40 38 36 35 32 32 31
Wind_Direction
182 184 200 230 233 243 194 143 336 239 226 333 265 267 319 315 291 321 32 189 203 181 179 185 191 180 179 180 175 172 172 164 159 153 150 148 144 146 145 140 133 126 124 123 122 121 119 120 117
173 179 216 252 255 226 130 126 198 32 5 320 261 268 259 284 308 298 207 178 190 189 184 181 183 185 181 179 176 171 167 163 158 155 151 151 147 147 146 140 135 131 130 129 128 124 125 123 124
165 202 247 242 245 255 215 175 167 115 248 233 250 263 312 269 195 252 225 205 206 195 191 190 198 194 184 176 174 169 165 160 158 155 154 151 150 145 144 139 136 133 133 131 128 130 131 130 129
177 190 206 242 224 203 249 167 242 267 196 224 275 260 202 225 205 198 226 216 211 193 199 199 200 193 193 176 174 168 164 161 158 158 153 152 149 143 142 138 132 134 134 132 131 134 133 137 135
197 234 239 239 232 240 231 262 285 268 293 238 241 277 266 204 204 220 261 233 212 200 200 201 198 194 188 192 173 170 166 162 162 160 156 154 149 145 143 139 144 139 139 134 134 137 139 140 137
194 269 233 234 208 204 226 259 261 258 259 235 251 282 267 153 231 233 265 241 225 208 205 203 198 197 186 188 180 171 168 169 161 159 155 154 151 146 144 149 147 146 143 140 139 138 139 140 142
249 229 254 268 243 218 197 159 240 287 267 267 163 268 311 222 277 282 256 243 231 214 202 202 199 196 195 196 188 174 168 167 163 158 156 154 153 149 152 149 154 149 146 143 140 140 142 143 144
241 253 255 231 219 221 131 228 276 270 319 95 245 252 282 80 293 281 254 237 221 213 205 181 187 188 193 191 200 188 166 162 163 160 161 154 156 155 154 154 160 152 154 143 143 141 139 139 145
216 236 246 230 218 217 175 273 144 328 263 215 213 267 322 275 262 258 252 227 207 216 196 190 186 182 184 173 174 185 171 166 164 160 164 153 152 155 153 154 158 157 150 148 148 141 139 140 142
214 228 243 246 219 250 274 271 292 243 243 248 242 228 234 232 248 249 252 250 209 188 215 190 196 209 197 184 176 171 169 158 157 159 167 154 150 149 154 158 161 157 153 154 148 145 138 129 136
213 241 229 224 243 286 293 288 243 258 276 260 267 224 207 222 246 256 253 282 240 182 214 192 181 187 196 187 175 172 173 170 160 160 164 154 150 151 154 152 157 153 155 151 149 143 142 147 147
238 229 234 243 262 252 277 295 264 256 278 284 230 199 194 212 230 270 247 229 225 203 193 182 182 180 194 193 195 193 178 175 168 168 168 161 157 155 157 153 159 157 162 160 159 160 157 157 155
232 224 217 236 251 257 279 267 278 267 238 210 173 170 193 214 229 207 265 269 187 183 189 172 178 188 185 188 192 181 164 171 166 166 172 168 158 158 156 160 161 164 168 167 169 169 161 162 156
219 242 229 237 252 249 255 270 258 260 175 187 184 180 192 203 215 219 208 253 187 171 190 189 171 188 192 187 173 158 153 163 165 167 168 170 161 163 158 159 165 166 170 172 172 168 164 164 159
238 241 225 228 246 258 245 261 238 254 194 197 203 188 196 210 200 226 221 210 225 184 164 169 177 186 184 176 161 152 149 163 162 166 171 169 166 159 157 157 168 167 169 170 169 169 166 168 168
224 235 247 230 231 234 226 262 193 170 198 210 208 202 198 205 210 207 207 200 201 185 165 165 164 162 168 160 156 149 153 157 167 157 168 165 166 165 151 162 169 169 165 169 171 172 171 175 174
214 239 223 236 214 227 220 256 121 187 211 224 209 209 211 202 207 193 205 202 193 193 180 181 172 158 162 161 155 162 170 173 164 164 163 170 175 184 178 168 172 171 173 174 174 175 178 176 177
228 227 245 243 167 216 226 248 270 227 237 231 213 215 213 210 208 192 190 196 190 194 192 187 174 164 160 160 161 170 181 179 172 170 164 182 183 192 184 177 178 175 179 176 179 182 179 182 179
271 258 254 234 171 238 238 253 259 238 229 223 220 215 216 214 196 189 183 191 187 187 181 182 178 172 165 166 165 165 172 181 183 175 180 192 193 195 188 188 187 184 188 184 183 184 181 184 182
236 245 246 249 258 241 250 250 263 229 229 230 221 217 218 210 195 191 184 184 192 189 186 181 175 182 180 174 175 171 173 184 185 189 204 208 196 198 196 193 195 195 196 190 190 191 189 197 191
229 235 245 255 191 244 270 255 249 225 219 228 229 234 215 210 202 193 190 191 192 192 183 184 176 173 181 186 186 178 165 177 198 203 210 212 206 203 202 200 199 202 200 199 200 199 200 210 211
230 224 246 248 257 259 205 259 250 240 248 207 230 218 219 208 206 198 192 192 193 193 188 183 180 181 178 179 178 179 174 176 196 208 212 213 213 205 206 206 207 206 206 204 210 204 209 224 220
243 218 232 240 245 267 239 257 261 254 253 247 234 211 213 209 204 199 199 194 192 189 188 186 184 186 183 183 181 181 186 195 196 202 208 210 211 208 207 208 211 212 210 209 215 207 212 223 236
225 186 195 214 233 243 244 237 263 245 240 256 235 202 204 204 204 201 199 195 191 188 190 188 188 190 188 187 188 189 190 193 195 203 205 206 203 200 200 208 213 218 214 213 218 218 216 226 238
219 200 209 217 210 236 215 209 244 264 261 267 260 252 152 194 201 197 194 194 193 191 190 190 190 192 193 194 196 196 198 194 197 196 201 203 204 206 209 208 214 217 216 221 224 232 224 225 232
202 192 205 220 218 228 153 223 245 270 296 279 251 267 230 191 197 199 197 197 197 194 192 194 193 194 196 196 201 205 206 205 206 202 203 206 207 210 214 214 220 222 224 228 231 233 236 238 233
194 225 234 263 226 257 209 208 265 238 263 235 238 238 227 189 202 206 201 199 200 197 196 198 198 198 198 200 200 205 206 209 209 209 209 212 212 214 216 220 224 226 228 231 232 234 237 240 240
218 174 184 214 228 232 233 242 255 209 254 296 250 237 280 283 214 211 204 199 201 201 198 198 204 204 202 203 204 205 207 212 213 212 212 213 213 214 215 216 219 222 227 231 234 238 239 239 240
202 211 233 249 235 247 244 211 231 296 9 338 316 305 324 327 296 218 203 200 199 199 200 199 202 206 206 206 207 208 209 211 213 217 220 221 220 220 221 222 225 227 228 231 235 238 240 236 236
210 221 220 225 198 230 280 237 111 24 350 342 336 324 321 323 328 273 200 191 194 199 201 203 202 204 208 207 208 212 213 213 214 217 219 221 224 226 229 229 231 235 237 239 235 235 235 236 235